カタログに戻る

STARLINK-32328

運用中通信VLEO
NORAD 62489·PAYLOAD·🇺🇸 United States

打ち上げ Jan 6, 2025 から Cape Canaveral Space Force Station

Loading…

次のパス (今後24時間)

TLE

最新Source: CelesTrak SupGP

元期: Sep 14, 2026, 20:53 UTC

1 62489C 25003C   26257.87062500 -.00024508  00000+0 -88787-3 0  2577
2 62489  43.0007 300.8463 0001441 269.6390   2.3767 15.27583936    19

AllMySatでSTARLINK-32328をリアルタイム追跡

Download on the App Store